Location: Newark
(21.1200°N, 73.4000°E)
Time: 03:03:01
(UTC+00:00)

Vanguard 2 Rocket - All Passes

Search period start: 29 January 2020 00:00
Search period end: 08 February 2020 00:00
Orbit: 554 x 3326 km, 32.9° (Epoch: 28 January)

Date Brightness Start Highest point End Pass type
(mag) Time Alt. Az. Time Alt. Az. Time Alt. Az.
29 Jan - 01:42:46 10° NW 01:47:10 30° NNE 01:53:42 10° ENE daylight
29 Jan - 03:54:29 10° WNW 04:01:13 82° NNE 04:13:40 10° ESE daylight
29 Jan - 06:07:43 10° W 06:16:42 41° SSW 06:31:20 10° SSE daylight
29 Jan - 08:27:39 10° WSW 08:34:40 14° SSW 08:42:56 10° S daylight
29 Jan - 18:03:52 10° S 18:06:17 12° SSE 18:08:24 10° SE night (unlit)
29 Jan - 20:14:47 10° SW 20:20:19 55° SSE 20:24:19 10° ENE night (unlit)
29 Jan - 22:29:48 10° WNW 22:33:15 26° NNW 22:36:42 10° NE visible
30 Jan - 00:43:58 10° NW 00:47:23 21° N 00:51:49 10° ENE visible
30 Jan - 02:55:41 10° NW 03:01:18 58° NNE 03:11:10 10° ESE daylight
30 Jan - 05:08:04 10° WNW 05:15:52 52° SSW 05:29:38 10° SE daylight
30 Jan - 07:24:33 10° WSW 07:32:48 20° SSW 07:43:46 10° S daylight
30 Jan - 19:14:42 10° SW 19:20:51 34° SSE 19:25:02 10° E night (unlit)
30 Jan - 21:29:28 10° W 21:33:52 41° NNW 21:37:35 10° NE night (unlit)
30 Jan - 23:44:49 10° NW 23:47:36 18° N 23:50:47 10° NE visible
31 Jan - 01:57:00 10° NW 02:01:38 38° NNE 02:08:53 10° E daylight
31 Jan - 04:08:49 10° WNW 04:15:30 70° SSW 04:27:42 10° SE daylight
31 Jan - 06:23:18 10° W 06:31:24 26° SSW 06:43:22 10° SSE daylight
31 Jan - 18:14:39 10° SSW 18:21:04 24° SSE 18:25:28 10° E night (unlit)
31 Jan - 20:28:54 10° WSW 20:34:37 74° NNW 20:38:40 10° ENE night (unlit)
31 Jan - 22:44:59 10° NW 22:47:52 19° N 22:50:48 10° NE visible
01 Feb - 00:58:20 10° NW 01:02:01 25° NNE 01:06:59 10° ENE visible
01 Feb - 03:09:53 10° WNW 03:15:33 85° NNE 03:25:43 10° ESE daylight
01 Feb - 05:23:04 10° W 05:30:26 34° SSW 05:42:22 10° SSE daylight
01 Feb - 07:44:41 10° SW 07:47:59 11° SSW 07:51:38 10° SSW daylight
01 Feb - 17:14:49 10° SSW 17:20:52 18° SSE 17:25:20 10° ESE visible
01 Feb - 19:28:12 10° SW 19:35:16 66° SSE 19:39:45 10° ENE night (unlit)
01 Feb - 21:44:29 10° WNW 21:48:18 25° NNW 21:51:37 10° NE night (unlit)
01 Feb - 23:59:28 10° NW 00:02:20 18° N 00:05:39 10° NE visible
02 Feb - 02:11:09 10° NW 02:15:56 57° NNE 02:23:49 10° ESE daylight
02 Feb - 04:23:28 10° W 04:29:56 44° SSW 04:41:06 10° SE daylight
02 Feb - 06:40:26 10° WSW 06:46:22 16° SSW 06:53:55 10° S daylight
02 Feb - 16:15:36 10° S 16:20:17 13° SSE 16:24:05 10° SE visible
02 Feb - 18:27:25 10° SW 18:35:39 43° SSE 18:40:40 10° E night (unlit)
02 Feb - 20:43:35 10° W 20:48:54 41° NNW 20:52:49 10° NE night (unlit)
02 Feb - 23:00:02 10° NW 23:02:35 16° N 23:05:12 10° NE visible
03 Feb - 01:12:28 10° NW 01:16:28 35° NNE 01:22:09 10° E visible
03 Feb - 03:24:17 10° WNW 03:29:52 61° SSW 03:39:41 10° SE daylight
03 Feb - 05:38:59 10° WSW 05:45:14 21° SSW 05:54:05 10° SSE daylight
03 Feb - 17:26:39 10° SSW 17:35:38 32° SSE 17:41:16 10° E visible
03 Feb - 19:42:24 10° WSW 19:49:33 70° NNW 19:54:04 10° ENE night (unlit)
03 Feb - 21:59:42 10° WNW 22:02:53 19° NNW 22:05:45 10° NE night (unlit)
04 Feb - 00:13:44 10° NW 00:16:58 22° NNE 00:20:50 10° ENE visible
04 Feb - 02:25:21 10° WNW 02:30:11 89° SW 02:38:19 10° ESE daylight
04 Feb - 04:38:41 10° W 04:44:35 27° SSW 04:53:39 10° SSE daylight
04 Feb - 16:26:01 10° SSW 16:35:12 24° SSE 16:41:22 10° ESE visible
04 Feb - 18:41:03 10° SW 18:50:02 76° SSE 18:55:14 10° ENE night (unlit)
04 Feb - 20:58:39 10° WNW 21:03:17 27° NNW 21:06:52 10° NE night (unlit)
04 Feb - 23:14:40 10° NW 23:17:19 17° N 23:20:05 10° NE visible
05 Feb - 01:26:34 10° NW 01:30:47 56° NNE 01:37:03 10° ESE daylight
05 Feb - 03:39:02 10° W 03:44:21 36° SSW 03:52:57 10° SE daylight
05 Feb - 05:58:03 10° SW 06:00:18 11° SSW 06:02:46 10° SSW daylight
05 Feb - 15:25:45 10° S 15:34:21 19° SSE 15:40:40 10° ESE visible
05 Feb - 17:39:38 10° SW 17:50:12 53° SSE 17:56:13 10° ENE visible
05 Feb - 19:57:08 10° W 20:03:50 43° NNW 20:08:12 10° NE night (unlit)
05 Feb - 22:14:46 10° NW 22:17:34 16° N 22:20:11 10° NE night (unlit)
06 Feb - 00:27:49 10° NW 00:31:27 33° NNE 00:36:00 10° E visible
06 Feb - 02:39:48 10° WNW 02:44:32 51° SSW 02:52:12 10° SE daylight
06 Feb - 04:55:18 10° WSW 04:59:27 15° SSW 05:04:45 10° S daylight
06 Feb - 14:26:27 10° S 14:33:00 14° SSE 14:38:25 10° SE visible
06 Feb - 16:38:14 10° SW 16:49:56 40° SSE 16:56:51 10° E visible
06 Feb - 18:55:20 10° WSW 19:04:18 69° NNW 19:09:31 10° ENE night (unlit)
06 Feb - 21:13:51 10° WNW 21:17:51 21° NNW 21:21:05 10° NE night (unlit)
06 Feb - 23:28:52 10° NW 23:31:59 21° NNE 23:35:16 10° ENE visible
07 Feb - 01:40:48 10° WNW 01:45:04 81° SSW 01:51:29 10° ESE daylight
07 Feb - 03:54:38 10° WSW 03:59:03 20° SSW 04:05:14 10° SSE daylight
07 Feb - 15:37:02 10° SSW 15:49:13 31° SSE 15:57:01 10° E visible
07 Feb - 17:53:21 10° WSW 18:04:33 83° SSE 18:10:42 10° ENE visible
07 Feb - 20:12:14 10° W 20:18:13 30° NNW 20:22:21 10° NE night (unlit)
07 Feb - 22:29:23 10° NW 22:32:20 18° N 22:35:04 10° NE visible
